Weather History for KELM - February, 2014

Change the Weather History Date:

Friday, February 21, 2014

  Actual Average Record
Temperature  
Mean Temperature 42 °F -  
Max Temperature 46 °F 38 °F 62 °F (1930)
Min Temperature 37 °F 18 °F -9 °F (2015)
Degree Days  
Heating Degree Days 24    
Moisture  
Dew Point 30 °F    
Average Humidity 64    
Maximum Humidity 93    
Minimum Humidity 40    
Precipitation  
Precipitation 0.13 in - - ()
Sea Level Pressure  
Sea Level Pressure 29.71 in    
Wind  
Wind Speed 6 mph (SW)    
Max Wind Speed 20 mph    
Max Gust Speed 30 mph    
Visibility 9 miles    
Events Rain    
Averages and records for this station are not official NWS values.
T = Trace of Precipitation, MM = Missing Value Source: NWS Daily Summary

Daily Weather History Graph

Daily Weather History Graph

Search for Another Location

Airport or City:

Trip Planner

Search our weather history database for the weather conditions in past years. The results will help you decide how hot, cold, wet, or windy it might be!

Date:

Astronomy

Feb. 21, 2014 Rise Set
Actual Time 6:55 AM EST 5:47 PM EST
Civil Twilight 6:26 AM EST 6:16 PM EST
Nautical Twilight 5:54 AM EST 6:48 PM EST
Astronomical Twilight 5:21 AM EST 7:21 PM EST
Moon No Moon Rise 10:10 AM EST (2/21)
Length of Visible Light 11h 49m
Length of Day
10h 52m
Waning Gibbous, 61% of the Moon is Illuminated
Feb 21
Waning Gibbous
Feb 22
Last Quarter
Mar 1
New
Mar 8
First Quarter
Mar 16
Full

Hourly Weather History & Observations

Time (EST) Temp. Windchill Dew Point Humidity Pressure Visibility Wind Dir Wind Speed Gust Speed Precip Events Conditions
12:53 AM 37.0 °F - 28.9 °F 73% 29.82 in 10.0 mi Calm Calm - N/A   Overcast
1:53 AM 39.0 °F - 28.0 °F 65% 29.79 in 10.0 mi Calm Calm - N/A   Clear
2:53 AM 41.0 °F 35.2 °F 28.9 °F 62% 29.75 in 10.0 mi SE 9.2 mph - N/A   Clear
3:53 AM 43.0 °F 38.8 °F 28.9 °F 58% 29.75 in 10.0 mi SE 6.9 mph - N/A   Mostly Cloudy
4:53 AM 43.0 °F 39.5 °F 30.0 °F 60% 29.75 in 10.0 mi ESE 5.8 mph - N/A   Overcast
6:05 AM 42.8 °F 38.6 °F 30.2 °F 61% 29.70 in 10.0 mi ESE 6.9 mph - N/A   Mostly Cloudy
6:53 AM 45.0 °F 42.6 °F 30.9 °F 58% 29.70 in 10.0 mi SE 4.6 mph - N/A   Mostly Cloudy
7:53 AM 44.1 °F - 33.1 °F 65% 29.68 in 10.0 mi Calm Calm - N/A   Mostly Cloudy
8:53 AM 46.0 °F 43.1 °F 35.1 °F 66% 29.65 in 10.0 mi East 5.8 mph - N/A   Mostly Cloudy
9:03 AM 46.4 °F 43.5 °F 35.6 °F 66% 29.64 in 10.0 mi Variable 5.8 mph - N/A   Mostly Cloudy
9:11 AM 46.4 °F 44.3 °F 35.6 °F 66% 29.64 in 10.0 mi Variable 4.6 mph - N/A   Mostly Cloudy
9:53 AM 46.0 °F 44.8 °F 36.0 °F 68% 29.64 in 10.0 mi ESE 3.5 mph - 0.00 in   Overcast
10:46 AM 42.8 °F 39.3 °F 37.4 °F 81% 29.60 in 2.5 mi NNE 5.8 mph - 0.03 in Rain Rain
10:53 AM 41.0 °F 36.4 °F 37.0 °F 86% 29.62 in 3.0 mi NE 6.9 mph - 0.04 in Rain Rain
11:22 AM 42.8 °F 40.1 °F 39.2 °F 87% 29.59 in 3.0 mi ENE 4.6 mph - 0.08 in Rain Light Rain
11:53 AM 43.0 °F 38.8 °F 39.9 °F 89% 29.65 in 5.0 mi West 6.9 mph - 0.08 in Rain Light Rain
12:08 PM 44.6 °F 40.7 °F 41.0 °F 87% 29.63 in 2.5 mi WSW 6.9 mph - 0.01 in Rain Light Rain
12:19 PM 42.8 °F 36.6 °F 41.0 °F 93% 29.64 in 3.0 mi West 11.5 mph - 0.01 in Rain Light Rain
12:53 PM 42.1 °F 33.6 °F 35.1 °F 76% 29.70 in 10.0 mi WSW 18.4 mph 29.9 mph 0.01 in   Overcast
1:53 PM 39.9 °F 35.1 °F 28.9 °F 65% 29.67 in 10.0 mi WSW 6.9 mph - 0.00 in   Overcast
2:53 PM 42.1 °F 37.1 °F 28.9 °F 60% 29.69 in 10.0 mi WSW 8.1 mph - N/A   Mostly Cloudy
3:53 PM 43.0 °F 37.2 °F 27.0 °F 53% 29.70 in 10.0 mi WSW 10.4 mph - N/A   Scattered Clouds
4:53 PM 44.1 °F 37.7 °F 26.1 °F 49% 29.71 in 10.0 mi WSW 12.7 mph - N/A   Mostly Cloudy
5:53 PM 41.0 °F 37.1 °F 26.1 °F 55% 29.72 in 10.0 mi SW 5.8 mph - N/A   Clear
6:53 PM 41.0 °F 37.1 °F 25.0 °F 53% 29.74 in 10.0 mi WSW 5.8 mph - N/A   Clear
7:53 PM 42.1 °F 33.6 °F 24.1 °F 49% 29.78 in 10.0 mi WSW 18.4 mph 25.3 mph N/A   Scattered Clouds
8:53 PM 42.1 °F 33.3 °F 21.0 °F 43% 29.80 in 10.0 mi WSW 19.6 mph 28.8 mph N/A   Clear
9:53 PM 41.0 °F 35.2 °F 19.9 °F 43% 29.81 in 10.0 mi WSW 9.2 mph 18.4 mph N/A   Clear
10:53 PM 41.0 °F 33.1 °F 19.0 °F 41% 29.82 in 10.0 mi WSW 15.0 mph - N/A   Clear
11:53 PM 39.9 °F 33.4 °F 17.1 °F 40% 29.83 in 10.0 mi WSW 10.4 mph - N/A   Clear